Regional Weather Roundup
Issued by NWS

Home | Current Version | Previous Version | Graphics & Text | Print | Product List | Glossary Off
Versions: 1 2 3 4 5 6 7 8 9 10 11 12 13 14 15 16 17 18 19 20 21 22 23 24 25 26 27 28 29 30 31 32 33 34 35 36 37 38 39 40 41 42 43 44 45 46 47 48 49 50

000
ASUS43 KFSD 060810
RWRSD

WEATHER ROUNDUP FOR SOUTH DAKOTA
NATIONAL WEATHER SERVICE SIOUX FALLS SD
200 AM CST FRI MAR 06 2015

NOTE: "FAIR" INDICATES FEW OR NO CLOUDS BELOW 12,000 FEET WITH NO
SIGNIFICANT WEATHER AND/OR OBSTRUCTIONS TO VISIBILITY.


SDZ001>005-009-010-012>017-060900-
NORTHWEST AND NORTH CENTRAL SOUTH DAKOTA

CITY           SKY/WX    TMP DP  RH WIND       PRES   REMARKS
BUFFALO          N/A     27  14  58 W10       30.00S WCI  17
FAITH            N/A     28  14  55 W13       30.06F WCI  17
MOBRIDGE       PTCLDY    20  13  74 SE7       30.02S WCI  11
$$

SDZ012>016-024>037-041>051-057-063-072>074-060900-
SOUTHWEST AND SOUTH CENTRAL SOUTH DAKOTA

CITY           SKY/WX    TMP DP  RH WIND       PRES   REMARKS
RAPID CTY ARPT PTCLDY    27  15  61 SW3       30.11S
PIERRE         CLOUDY    27  16  63 SW7       30.09F WCI  19
CUSTER         PTCLDY    29  12  49 W5        30.10F WCI  24
ELLSWORTH AFB  PTCLDY    30  16  55 W9        30.09S WCI  22
PHILIP         PTCLDY    24  17  74 W6        30.12F WCI  17
PINE RIDGE     PTCLDY    27  19  72 SW6       30.16S WCI  20
SPEARFISH      MOCLDY    36  16  44 W10       30.10S
WINNER         FAIR      31  17  56 W8        30.13S WCI  23
$$

SDZ004>011-016>023-039-040-060900-
NORTHEAST SOUTH DAKOTA

CITY           SKY/WX    TMP DP  RH WIND       PRES   REMARKS
ABERDEEN       MOCLDY    13   7  77 S8        30.05F WCI   2
WATERTOWN      CLEAR     12   4  70 S9        30.05F WCI   0
$$

SDZ017-020-022-023-036>040-048>070-060900-
SOUTHEAST SOUTH DAKOTA

CITY           SKY/WX    TMP DP  RH WIND       PRES   REMARKS
SIOUX FALLS    CLEAR     21   8  57 SW5       30.11F WCI  15
HURON          CLEAR     13   6  74 SE3       30.09S
CHAMBERLAIN    PTCLDY    25  19  76 W6        30.11R WCI  18
MITCHELL       CLEAR     19   8  62 SW7       30.11S WCI  10
YANKTON        CLEAR     28   7  40 SW8       30.14S WCI  20
$$

ABBREVIATIONS USED IN REMARKS
   TC - TEMPERATURE IN CELSIUS
  WCI - WIND CHILL INDEX
   HX - HEAT INDEX
  VSB - VISIBILITY



USA.gov is the U.S. government's official web portal to all federal, state and local government web resources and services.